Flag for Australia Weather past 2 weeks in Cairns, Queensland, Australia

Now
73 °F

Overcast.


Feels Like: 75 °F
Forecast: 64 / 85 °F
Wind: 6 mph from West

Location: Cairns Airport

Current Time: Sep 3, 2015 at 11:43:38 PM

Latest Report: Sep 3, 2015 at 11:00 PM


Visibility: N/A

Pressure: 30.04 "Hg

Humidity: 74%

Dew point: 64 °F

Location of CairnsLocation

Historic Weather in Cairns — Graph

°F

Cairns temperature yesterday

Maximum temperature yesterday: 82 °F (at 12:30 PM)
Minimum temperature yesterday: 68 °F (at 6:00 AM)
Average temperature yesterday: 75 °F

Past Weeks' High & Low Weather Summary

 TemperatureHumidityPressure
High82 °F (Aug 22, 1:00 PM)100% (Aug 23, 3:00 PM)30.15 "Hg (Aug 23, 3:00 PM)
Low63 °F (Aug 20, 2:00 AM)45% (Aug 20, 2:00 PM)29.92 "Hg (Aug 30, 3:00 PM)
Average74 °F75%30.04 "Hg
* Reported Aug 19 10:00 PM — Sep 3 10:00 PM, Cairns, Weather by CustomWeather, © 2015

Note: Actual official high and low records may vary slightly from our data, if they occured in-between our weather recording intervals... More about our weather records

Advertising

Cairns weather history for previous 24 hours

 ConditionsComfort  
Time TempWeatherWind HumidityBarometerVisibility
10:00 PM
Thu, Sep 3
72 °FClear.7 mph78%30.04 "Hg10 mi
9:30 PM72 °FClear.6 mph83%30.04 "Hg10 mi
9:00 PM72 °FClear.6 mph88%30.04 "Hg10 mi
8:30 PM73 °FClear.5 mph83%30.04 "Hg10 mi
8:00 PM73 °FClear.5 mph83%30.04 "Hg10 mi
7:00 PM73 °FClear.No wind83%30.01 "Hg10 mi
6:30 PM73 °FClear.5 mph83%30.01 "Hg10 mi
6:00 PM75 °FSunny.6 mph78%29.98 "Hg10 mi
5:30 PM77 °FSunny.7 mph74%29.98 "Hg10 mi
5:00 PM79 °FSunny.8 mph65%29.98 "Hg10 mi
4:30 PM79 °FSunny.9 mph65%29.98 "Hg10 mi
4:00 PM81 °FSunny.9 mph62%29.98 "Hg10 mi
3:30 PM81 °FPassing clouds.9 mph66%29.98 "HgN/A
3:00 PM79 °FPassing clouds.9 mph65%29.98 "HgN/A
2:00 PM81 °FPassing clouds.10 mph62%30.01 "HgN/A
1:30 PM81 °FPassing clouds.10 mph62%30.01 "HgN/A
1:00 PM82 °FPassing clouds.12 mph62%30.01 "HgN/A
12:30 PM81 °FPassing clouds.10 mph66%30.04 "HgN/A
12:00 PM79 °FPassing clouds.12 mph70%30.07 "HgN/A
11:30 AM81 °FPassing clouds.13 mph62%30.07 "HgN/A
11:00 AM81 °FPassing clouds.12 mph58%30.07 "HgN/A
10:30 AM81 °FPassing clouds.13 mph58%30.07 "HgN/A
10:00 AM81 °FPassing clouds.7 mph58%30.09 "HgN/A
9:30 AM79 °FPassing clouds.7 mph61%30.09 "HgN/A
9:00 AM79 °FPassing clouds.6 mph61%30.07 "HgN/A
8:30 AM77 °FPassing clouds.7 mph69%30.07 "HgN/A
8:00 AM73 °FPassing clouds.6 mph78%30.07 "HgN/A
7:30 AM72 °FPassing clouds.3 mph88%30.07 "HgN/A
7:00 AM66 °FPassing clouds.No wind100%30.04 "HgN/A
6:30 AM66 °FPassing clouds.No wind100%30.04 "HgN/A
6:00 AM66 °FPassing clouds.No wind100%30.04 "HgN/A
5:30 AM66 °FPassing clouds.No wind100%30.01 "HgN/A
5:00 AM68 °FPassing clouds.No wind94%30.01 "HgN/A
4:30 AM68 °FPassing clouds.No wind94%30.01 "HgN/A
4:00 AM68 °FPassing clouds.No wind94%30.01 "HgN/A
3:30 AM68 °FPassing clouds.1 mph94%30.01 "HgN/A
3:00 AM70 °FPassing clouds.No wind88%30.01 "HgN/A
2:30 AM70 °FPassing clouds.No wind94%30.01 "HgN/A
2:00 AM70 °FPartly cloudy.No wind94%30.01 "HgN/A
1:00 AM70 °FPassing clouds.3 mph94%30.01 "HgN/A
12:30 AM70 °FPassing clouds.2 mph94%30.04 "HgN/A
12:00 AM72 °FPassing clouds.5 mph88%30.04 "HgN/A
11:30 PM
Wed, Sep 2
72 °FPassing clouds.No wind88%30.04 "HgN/A
11:00 PM72 °FPassing clouds.No wind88%30.04 "HgN/A
Weather by CustomWeather, © 2015

See weather overviewHow to use our weather pages